Terminal Aerodrome Forecast
Issued by NWS La Crosse, WI

Home | Current Version | Previous Version | Text Only | Print | Product List | Glossary On
Versions: 1 2 3 4 5 6 7 8 9 10 11 12 13 14 15 16 17 18 19 20 21 22 23 24 25 26 27 28 29 30 31 32 33 34 35 36 37 38 39 40 41
000
FTUS43 KARX 272321
TAFRST
TAF
KRST 272321Z 2800/2824 15007KT P6SM OVC012
     FM280300 16010KT P6SM OVC008
     FM281500 16018G24KT P6SM OVC012=

USA.gov is the U.S. government's official web portal to all federal, state and local government web resources and services.